DW9636 Weather Reports


time (UTC)temp
C
wind
direction
speed
KPH
gust
KPH
rain 1hr
cm
rain 24hr
cm
rain mn
cm
humidity
%
barometer
mb
20260506113019 2 331 0.0 0.0 0.00 0.00 0.00 89 1013.9
20260506111517 2 331 0.0 0.0 0.00 0.00 0.00 89 1013.8
20260506110013 2 331 0.0 0.0 0.00 0.00 0.00 88 1013.7
20260506104517 3 331 0.0 0.0 0.00 0.00 0.00 88 1013.6
20260506103008 3 331 0.0 0.0 0.00 0.00 0.00 87 1013.6
20260506101505 3 331 0.0 0.0 0.00 0.00 0.00 88 1013.5
20260506100011 4 331 0.0 0.0 0.00 0.00 0.00 88 1013.5
20260506094502 4 331 0.0 0.0 0.00 0.00 0.00 87 1013.3
20260506093058 5 331 0.0 0.0 0.00 0.00 0.00 86 1013.3
20260506091557 5 331 0.0 0.0 0.00 0.00 0.00 86 1013.1
20260506090053 5 331 0.0 0.0 0.00 0.00 0.00 85 1013.2
20260506084553 6 331 0.0 0.0 0.00 0.00 0.00 85 1013.1
20260506083054 6 331 0.0 0.0 0.00 0.00 0.00 84 1013.1
20260506081600 7 331 0.0 0.0 0.00 0.00 0.00 83 1013.0
20260506073037 8 331 0.0 0.0 0.00 0.00 0.00 81 1012.6
20260506071534 8 331 0.0 0.0 0.00 0.00 0.00 81 1012.4
20260506061528 10 331 0.0 0.0 0.00 0.00 0.00 75 1012.0
20260506044524 15 331 0.0 0.0 0.00 0.00 0.00 61 1011.1
20260506043020 15 331 0.0 0.0 0.00 0.00 0.00 60 1011.1
20260506041520 16 331 0.0 0.0 0.00 0.00 0.00 57 1011.0
20260506040016 16 331 0.0 0.0 0.00 0.00 0.00 49 1010.9
20260506034515 17 331 0.0 0.0 0.00 0.00 0.00 42 1010.6
20260506033020 18 331 0.0 0.0 0.00 0.00 0.00 36 1010.4
20260506031523 18 331 0.0 0.0 0.00 0.00 0.00 33 1010.2
20260506030010 19 331 0.0 0.0 0.00 0.00 0.00 32 1010.1
20260506024510 20 333 0.0 0.0 0.00 0.00 0.00 34 1009.8
20260506023008 20 325 0.0 0.0 0.00 0.00 0.00 35 1009.6
20260506021508 20 355 0.0 0.0 0.00 0.00 0.00 36 1009.5
20260506020012 20 19 0.0 0.0 0.00 0.00 0.00 36 1009.5
20260506014506 20 331 0.0 0.0 0.00 0.00 0.00 36 1009.3
20260506013006 21 323 1.6 0.0 0.00 0.00 0.00 37 1009.2
20260506011511 21 335 0.0 0.0 0.00 0.00 0.00 37 1008.9
20260506010015 21 324 1.6 0.0 0.00 0.00 0.00 35 1008.7
20260506004506 22 308 0.0 0.0 0.00 0.00 0.00 35 1008.5
20260506003004 22 346 1.6 0.0 0.00 0.00 0.00 35 1008.3
20260506001504 22 345 0.0 0.0 0.00 0.00 0.00 35 1008.3
20260506000004 22 342 0.0 0.0 0.00 0.00 0.00 37 1008.2
20260505234503 22 31 0.0 0.0 0.00 0.00 0.00 36 1008.3
20260505233005 22 32 0.0 0.0 0.00 0.00 0.00 32 1008.3
20260505231503 22 360 0.0 0.0 0.00 0.00 0.00 35 1008.1
20260505230101 23 13 0.0 0.0 0.00 0.00 0.00 32 1008.1
20260505224559 24 290 0.0 0.0 0.00 0.00 0.00 34 1008.0
20260505223058 23 293 0.0 0.0 0.00 0.00 0.00 35 1008.2
20260505221600 23 343 0.0 0.0 0.00 0.00 0.00 32 1008.3
20260505220055 23 29 0.0 0.0 0.00 0.00 0.00 33 1008.2
20260505214619 23 200 0.0 0.0 0.00 0.00 0.00 31 1008.2
20260505213055 24 33 1.6 0.0 0.00 0.00 0.00 31 1008.3
20260505211553 23 65 0.0 0.0 0.00 0.00 0.00 31 1008.3
20260505210051 23 239 1.6 0.0 0.00 0.00 0.00 31 1008.2
20260505204550 23 26 0.0 0.0 0.00 0.00 0.00 32 1008.4
20260505203049 23 341 0.0 0.0 0.00 0.00 0.00 30 1008.5
20260505201554 23 95 0.0 0.0 0.00 0.00 0.00 30 1008.5
20260505200047 23 324 0.0 0.0 0.00 0.00 0.00 31 1008.6
20260505194548 23 53 0.0 0.0 0.00 0.00 0.00 32 1008.7
20260505193046 23 69 0.0 0.0 0.00 0.00 0.00 34 1008.7
20260505191555 23 39 0.0 0.0 0.00 0.00 0.00 35 1008.8
20260505190040 22 18 0.0 0.0 0.00 0.00 0.00 37 1008.9
20260505184540 22 5 0.0 0.0 0.00 0.00 0.00 38 1009.0
20260505183045 21 5 0.0 0.0 0.00 0.00 0.00 40 1009.2
20260505181533 20 331 0.0 0.0 0.00 0.00 0.00 41 1009.1
20260505180025 19 28 0.0 0.0 0.00 0.00 0.00 42 1009.2
20260505174523 18 275 0.0 0.0 0.00 0.00 0.00 42 1009.2
20260505173027 17 311 0.0 0.0 0.00 0.00 0.00 47 1009.3
20260505171519 17 307 0.0 0.0 0.00 0.00 0.00 47 1009.2
20260505170017 16 298 0.0 0.0 0.00 0.00 0.00 54 1009.1
20260505164506 14 298 0.0 0.0 0.00 0.00 0.00 62 1009.2
20260505163009 12 298 0.0 0.0 0.00 0.00 0.00 68 1009.3
20260505161621 11 298 0.0 0.0 0.00 0.00 0.00 75 1009.4
20260505153049 7 298 0.0 0.0 0.00 0.00 0.00 94 1009.9
20260505151545 6 298 0.0 0.0 0.00 0.00 0.00 95 1009.9
20260505124534 0 298 0.0 0.0 0.00 0.00 0.00 90 1009.1
20260505123031 0 298 0.0 0.0 0.00 0.00 0.00 90 1009.1
20260505121533 0 298 0.0 0.0 0.00 0.00 0.00 90 1009.1
20260505120053 0 298 0.0 0.0 0.00 0.00 0.00 90 1008.8
20260505114524 0 298 0.0 0.0 0.00 0.00 0.00 90 1008.6